www.pogodaiklimat.ru

Погода и климат >> Архив погоды >> Бангладеш >> Кхулна


ПОГОДА в Кхулне

  • Прогноз погоды в Кхулне
  • Монитор погоды в Кхулне

АРХИВ ПОГОДЫ в Кхулне

Время (UTC), дата Ветер
(напр.,м/с)
 
Видим.   Явления Облачность Т
(С)
Тd
(С)
f
(%)
Тe
(С)
Тes
(С)
Комфортность P
(гПа)
Po
(гПа)
Тmin
(С)
Tmax
(С)
R
(мм)
R24
(мм)
S
(см)
00 13.06 штиль 0 6000 м {дождь} 8/3 540 м
[Sc Ac As]
+26.0 +25.0 94 +37 +37 очень
душно
999.2 998.9 0.0
12 13.06 З 1 7000 м 6/3 540 м
[Sc As trans]
+35.5 +28.0 65 +56 +56 опасность
перегрева
996.6 996.3 +37.0
18 13.06 ЮЗ 1 6000 м 6/3 540 м
[Sc Ac trans]
+31.2 +28.0 83 +51 +51 опасность
перегрева
999.7 999.5
00 14.06 штиль 0 7000 м 10/4 540 м
[Sc As op]
+29.0 +28.0 94 +48 +48 опасность
перегрева
998.2 998.0
06 14.06 штиль 0 7000 м 9/5 540 м
[Sc Ac As]
+36.0 +29.0 67 +59 +66 опасность
перегрева
999.2 999.0
12 14.06 ЮВ 1 6000 м 9/5 540 м
[Sc Ac As]
+33.8 +30.0 81 +61 +61 опасность
перегрева
996.7 996.4 +36.7
15 14.06 штиль 0 6000 м 3/3 540 м
[Sc]
+31.0 +30.0 94 +57 +57 опасность
перегрева
998.9 998.7
18 14.06 штиль 0 6000 м ясно +30.8 +30.0 96 +57 +57 опасность
перегрева
999.8 999.6
00 15.06 Ю 1 6000 м 4/4 540 м
[Sc]
+29.8 +29.0 95 +52 +52 опасность
перегрева
999.1 998.8
03 15.06 Ю 2 7000 м 9/4 540 м
[Sc Ac As]
+32.2 +29.0 83 +55 +59 опасность
перегрева
1000.0 999.8 +28.8
06 15.06 ЮЗ 2 7000 м 9/5 540 м
[Sc Ac As]
+33.4 +27.0 69 +51 +57 опасность
перегрева
1000.0 999.8
09 15.06 ЮЗ 1 7000 м 10/5 540 м
[Cb calv As op]
+31.8 +26.0 71 +47 +49 опасность
перегрева
998.5 998.3
12 15.06 Ю 2 7000 м 10/5 540 м
[Cb calv As op]
+30.5 +26.0 77 +46 +46 опасность
перегрева
997.5 997.3 +33.8
15 15.06 Ю 2 6000 м 9/5 540 м
[Sc Ac As]
+30.0 +26.0 79 +45 +45 опасность
перегрева
999.1 998.8
18 15.06 Ю 1 6000 м 9/4 540 м
[Sc As trans]
+29.5 +28.0 92 +49 +49 опасность
перегрева
1000.3 1000.0
00 16.06 Ю 1 6000 м 8/4 540 м
[Sc Ac As]
+29.0 +28.0 94 +48 +48 опасность
перегрева
999.3 999.1
03 16.06 штиль 0 6000 м 9/5 540 м
[Sc Ac As]
+32.0 +29.0 84 +55 +59 опасность
перегрева
999.3 999.0 +28.5
06 16.06 Ю 1 7000 м 6/6 540 м
[Sc diur, vesp]
+36.0 +28.0 64 +57 +67 опасность
перегрева
998.9 998.6
09 16.06 ЮЗ 1 7000 м 1/1 540 м
[Sc]
+38.0 +26.0 51 +53 +67 опасность
перегрева
997.6 997.4
12 16.06 ЮЗ 1 7000 м ясно +33.6 +28.0 73 +55 +55 опасность
перегрева
997.2 997.0 +38.2
15 16.06 ЮЗ 1 7000 м ясно +31.0 +26.0 75 +46 +46 опасность
перегрева
1008.9 998.7
18 16.06 Ю 1 7000 м ясно +29.5 +28.0 92 +49 +49 опасность
перегрева
999.5 999.3
00 17.06 Ю 1 6000 м ясно +29.2 +28.0 93 +48 +49 опасность
перегрева
998.1 997.9
03 17.06 штиль 0 7000 м 9/4 540 м
[Sc Ac As]
+32.2 +29.0 83 +55 +60 опасность
перегрева
999.1 998.8 +28.5
06 17.06 ЮЗ 1 8000 м 9/4 540 м
[Sc Ac As]
+36.0 +28.0 64 +57 +63 опасность
перегрева
999.3 999.0
09 17.06 Ю 1 8000 м 8/4 540 м
[Sc Ac trans]
+36.4 +29.0 66 +60 +65 опасность
перегрева
998.0 997.8
12 17.06 ЮВ 1 7000 м 4/3 540 м
[Sc Ac trans]
+33.8 +27.0 68 +52 +53 опасность
перегрева
997.4 997.2 +37.2
15 17.06 Ю 2 6000 м ясно +32.0 +27.0 75 +50 +50 опасность
перегрева
999.0 998.8
18 17.06 Ю 2 6000 м 3/3 540 м
[Sc]
+31.0 +30.0 94 +57 +57 опасность
перегрева
1000.9 1000.7
00 18.06 ЮВ 1 6000 м гроза без осадков 10/5 540 м
[Cb cap As op]
+26.0 +25.0 94 +37 +37 очень
душно
999.9 999.6 1
03 18.06 ЮВ 1 6000 м 10/5 500 м
[Sc As op]
+26.8 +25.0 90 +39 +40 очень
душно
1000.6 1000.4 +25.0
06 18.06 штиль 0 6000 м 10/5 540 м
[Sc As op]
+30.0 +24.0 70 +41 +44 опасность
перегрева
1000.9 1000.7
09 18.06 штиль 0 7000 м 8/3 540 м
[Sc Ac trans]
+33.7 +25.0 60 +47 +54 опасность
перегрева
998.9 998.7
12 18.06 З 1 7000 м 9/3 540 м
[Sc Ac trans Ci fib]
+33.0 +27.0 71 +51 +51 опасность
перегрева
996.9 996.7 +34.0
15 18.06 ЮВ 1 6000 м 8/3 540 м
[Sc Ac trans]
+30.5 +28.0 87 +51 +51 опасность
перегрева
1000.2 1000.0
18 18.06 штиль 0 6000 м 9/3 540 м
[Sc Ac trans]
+30.0 +28.0 89 +50 +50 опасность
перегрева
1001.0 1000.8
00 19.06 штиль 0 7000 м 6/0
[Ac trans]
+28.8 +28.0 95 +47 +48 опасность
перегрева
999.4 999.2
03 19.06 штиль 0 7000 м 8/5 540 м
[Sc Ac trans]
+33.5 +29.0 77 +57 +62 опасность
перегрева
1000.8 1000.5 +26.5
06 19.06 штиль 0 8000 м 8/6 540 м
[Sc diur, vesp Ac trans]
+37.0 +28.0 60 +57 +66 опасность
перегрева
1000.4 1000.2
09 19.06 штиль 0 6000 м 4/4 540 м
[Sc]
+36.8 +27.0 57 +54 +65 опасность
перегрева
997.3 997.0
12 19.06 Ю 1 6000 м 4/4 540 м
[Sc]
+32.8 +27.0 72 +51 +51 опасность
перегрева
997.8 997.5 +37.0
15 19.06 штиль 0 6000 м ясно +30.0 +27.0 84 +47 +47 опасность
перегрева
1001.1 1000.8

 

Местоположение метеостанции Кхулна (Бангладеш): широта 22.78 долгота 89.53 высота над уровнем моря 4 м.

В архиве по умолчанию представлена погода в Кхулне за последнюю неделю. Архивные данные за месяц целиком и за предыдущие месяцы, начиная с января 2011 года, Вы можете получить, выбрав интересующий диапазон дат из раскрывающегося списка и нажав кнопку "Ввод!".


*Определитесь, кто Вы:
робот инопланетянин человек

Внимание! Время в таблицах - всемирное. Для получения местного времени необходимо прибавить поправку, которая равна 6.5 ч.

Смотрите также архив погоды в соседних городах и на ближайших метеорологических станциях:

Погода в Монгле (Бангладеш) (20 км)
Погода в Гопалгандж-Садаре (Бангладеш) (39 км)
Погода в Саткхире (Бангладеш) (47 км)
Погода в Джессоре (Бангладеш) (58 км)
Погода в Бейсирхэте (Западная Бенгалия, Индия) (69 км)
Погода в Мадарипуре (Бангладеш) (79 км)
Погода в Барисале (Бангладеш) (86 км)
Погода в Кумархали (Бангладеш) (91 км)
Погода в Патуакхали (Бангладеш) (96 км)
Погода в Фаридпуре (Бангладеш) (97 км)

Пояснения к столбцам:

Ветер - указаны скорость ветра в м/с - средняя за 10 мин, порывы в срок и между сроками (в фигурных скобках) и направление, откуда дует ветер: С - северный, СВ - северо-восточный, В - восточный, ЮВ - юго-восточный, Ю - южный, ЮЗ - юго-западный, З - западный, СЗ - северо-западный.
Видимость - горизонтальная дальность видимости в метрах или километрах. При видимости от 1 до 10 км при отсутствии осадков обычно наблюдается дымка, при ухудшении видимости до 1 км и менее - туман. В сухую погоду видимость может ухудшаться дымом, пылью или мглою.
Явления - указаны атмосферные явления, наблюдавшиеся в срок или в последний час перед сроком; фигурными скобками обозначены явления, наблюдавшиеся между сроками (за 1-3 часа до срока); квадратными скобками обозначены град или гололедные отложения с указанием их диаметра в мм.
Облачность - указаны через наклонную черту общая и нижняя облачность в баллах и высота нижней границы облаков в метрах; квадратными скобками обозначены формы облаков: Ci - перистые, Cs - перисто-слоистые, Cc - перисто-кучевые, Ac - высококучевые, As - высокослоистые, Sc - слоисто-кучевые, Ns - слоисто-дождевые, Cu - кучевые, Cb - кучево-дождевые. Подробнее классификацию облаков см. в Атласе облаков (PDF).
T - Температура воздуха - температура, измеренная на высоте 2 м над землей.
Td - Температура точки росы - температура, при понижении до которой содержащийся в воздухе водяной пар достигнет насыщения.
f - Относительная влажность воздуха - влажноcть воздуха, измеренная на высоте 2 м над землей.
Te - Эффективная температура - температура, которую ощущает одетый по сезону человек в тени. Характеристика душности погоды. При расчете учитывается влияние влажности воздуха и скорости ветра на теплоощущения человека.
Tes - Эффективная температура на солнце - температура, которую ощущает человек, с поправкой на солнечный нагрев. Характеристика знойности погоды. Зависит от высоты солнца над горизонтом, облачности и скорости ветра. Ночью, в пасмурную погоду, а также при ветре 12 м/с и более поправка равна нулю.
P - Атмосферное давление - приведенное к уровню моря атмосферное давление.
Po - Атмосферное давление - измеренное на уровне метеостанции атмосферное давление.
Tmin - Минимальная температура - минимум температуры воздуха на высоте 2 м над землей.
Tmax - Максимальная температура - максимум температуры воздуха на высоте 2 м над землей.
R - Количество осадков - Количество выпавших осадков за период времени, мм. При наведении курсора мыши на число - период времени, за который выпало указанное количество осадков.
R24 - Количество осадков - Количество выпавших осадков за 24 часа, мм.
S - Снежный покров - Высота снежного покрова, см. При наведении курсора мыши на число - состояние снежного покрова и степень покрытия местности в баллах.